TimeEDT,TemperatureF,Dew PointF,Humidity,Sea Level PressureIn,VisibilityMPH,Wind Direction,Wind SpeedMPH,Gust SpeedMPH,PrecipitationIn,Events,Conditions,WindDirDegrees,DateUTC
12:53 AM,70.0,68.0,93,30.05,6.0,SSW,5.8,-,N/A,,Clear,200,2013-07-18 04:53:00
1:53 AM,71.1,69.1,93,30.04,7.0,SSW,9.2,-,N/A,,Clear,210,2013-07-18 05:53:00
2:53 AM,70.0,69.1,97,30.03,7.0,SW,8.1,-,N/A,,Clear,220,2013-07-18 06:53:00
3:53 AM,70.0,69.1,97,30.01,6.0,WSW,10.4,-,N/A,,Clear,240,2013-07-18 07:53:00
4:53 AM,71.1,70.0,96,30.00,4.0,SW,9.2,-,N/A,,Scattered Clouds,230,2013-07-18 08:53:00
5:03 AM,71.6,69.8,94,30.00,4.0,SW,8.1,-,N/A,,Scattered Clouds,220,2013-07-18 09:03:00
5:37 AM,69.8,69.8,100,30.00,2.0,SW,8.1,-,N/A,,Scattered Clouds,220,2013-07-18 09:37:00
5:42 AM,69.8,69.8,100,30.00,1.8,SW,8.1,-,N/A,,Mostly Cloudy,220,2013-07-18 09:42:00
5:53 AM,70.0,69.1,97,30.01,1.5,SW,9.2,-,N/A,,Mostly Cloudy,220,2013-07-18 09:53:00
6:53 AM,71.1,70.0,96,30.00,7.0,SW,8.1,-,N/A,,Partly Cloudy,230,2013-07-18 10:53:00
6:55 AM,71.6,69.8,94,30.00,7.0,SW,8.1,-,N/A,,Partly Cloudy,230,2013-07-18 10:55:00
7:53 AM,75.9,71.1,85,30.01,8.0,WSW,12.7,-,N/A,,Clear,240,2013-07-18 11:53:00
8:53 AM,79.0,71.1,77,30.01,9.0,WSW,16.1,-,N/A,,Clear,250,2013-07-18 12:53:00
9:53 AM,80.1,72.0,76,30.01,9.0,West,11.5,-,N/A,,Clear,260,2013-07-18 13:53:00
10:53 AM,86.0,73.0,65,30.01,10.0,Variable,6.9,-,N/A,,Clear,0,2013-07-18 14:53:00
11:53 AM,87.1,72.0,61,30.01,10.0,North,6.9,-,N/A,,Clear,350,2013-07-18 15:53:00
12:53 PM,87.1,71.1,59,30.01,10.0,North,8.1,-,N/A,,Clear,10,2013-07-18 16:53:00
1:53 PM,82.0,72.0,71,30.01,9.0,SSE,6.9,-,N/A,,Clear,150,2013-07-18 17:53:00
2:53 PM,82.0,70.0,67,30.00,10.0,South,5.8,-,N/A,,Clear,170,2013-07-18 18:53:00
3:53 PM,81.0,69.1,67,29.99,10.0,SE,8.1,-,N/A,,Clear,130,2013-07-18 19:53:00
4:53 PM,81.0,70.0,69,29.99,10.0,SE,5.8,-,N/A,,Clear,140,2013-07-18 20:53:00
5:53 PM,79.0,69.1,72,29.99,10.0,ESE,5.8,-,N/A,,Clear,120,2013-07-18 21:53:00
6:53 PM,75.9,69.1,79,30.00,10.0,ESE,6.9,-,N/A,,Clear,120,2013-07-18 22:53:00
7:53 PM,71.1,69.1,93,30.00,6.0,SE,5.8,-,N/A,,Clear,140,2013-07-18 23:53:00
8:53 PM,70.0,68.0,93,30.00,4.0,SE,5.8,-,N/A,,Clear,140,2013-07-19 00:53:00
9:53 PM,70.0,68.0,93,30.01,4.0,South,4.6,-,N/A,,Clear,170,2013-07-19 01:53:00
10:14 PM,69.8,68.0,94,30.01,4.0,South,3.5,-,N/A,,Scattered Clouds,170,2013-07-19 02:14:00
10:21 PM,69.8,68.0,94,30.01,2.5,South,4.6,-,N/A,,Mostly Cloudy,170,2013-07-19 02:21:00
10:26 PM,69.8,69.8,100,30.01,1.0,South,4.6,-,N/A,,Mist,170,2013-07-19 02:26:00
10:33 PM,69.8,69.8,100,30.01,0.5,South,5.8,-,N/A,Fog,Fog,170,2013-07-19 02:33:00
10:37 PM,69.8,68.0,94,30.01,0.2,South,5.8,-,N/A,Fog,Fog,170,2013-07-19 02:37:00
10:53 PM,70.0,69.1,97,30.01,0.2,South,6.9,-,N/A,Fog,Fog,170,2013-07-19 02:53:00
11:53 PM,70.0,70.0,100,29.99,0.2,South,5.8,-,N/A,Fog,Fog,170,2013-07-19 03:53:00